Time,TemperatureF,DewpointF,PressureIn,WindDirection,WindDirectionDegrees,WindSpeedMPH,WindSpeedGustMPH,Humidity,HourlyPrecipIn,Conditions,Clouds,dailyrainin,SoftwareType,DateUTC
2013-01-04 00:03:00,29.3,18.6,32.23,South,182,0.0,0.0,64,0.00,,---,0.00,VWS V14.01,2013-01-04 08:03:00,
2013-01-04 00:08:00,29.4,18.7,32.23,South,190,0.0,0.0,64,0.00,,---,0.00,VWS V14.01,2013-01-04 08:08:00,
2013-01-04 00:13:00,29.4,19.1,32.23,SSW,204,0.0,0.0,65,0.00,,---,0.00,VWS V14.01,2013-01-04 08:13:00,
2013-01-04 00:18:00,29.4,19.1,32.23,SSW,199,0.0,0.0,65,0.00,,---,0.00,VWS V14.01,2013-01-04 08:18:00,
2013-01-04 00:23:00,29.3,19.0,32.23,SSW,213,0.0,0.0,65,0.00,,---,0.00,VWS V14.01,2013-01-04 08:23:00,
2013-01-04 00:28:00,29.1,18.8,32.23,South,188,0.0,0.0,65,0.00,,---,0.00,VWS V14.01,2013-01-04 08:28:00,
2013-01-04 00:33:00,29.0,19.1,32.23,South,182,0.0,0.0,66,0.00,,---,0.00,VWS V14.01,2013-01-04 08:33:00,
2013-01-04 00:38:00,28.8,18.5,32.23,SSW,192,0.0,0.0,65,0.00,,---,0.00,VWS V14.01,2013-01-04 08:38:00,
2013-01-04 00:43:00,28.5,18.6,32.23,SSW,200,0.0,0.0,66,0.00,,---,0.00,VWS V14.01,2013-01-04 08:43:00,
2013-01-04 00:48:00,28.2,18.3,32.23,SSW,203,0.0,0.0,66,0.00,,---,0.00,VWS V14.01,2013-01-04 08:48:00,
2013-01-04 00:53:00,28.2,19.0,32.23,SSW,195,0.0,0.0,68,0.00,,---,0.00,VWS V14.01,2013-01-04 08:53:00,
2013-01-04 00:59:00,28.2,19.0,32.23,SSW,211,0.0,0.0,68,0.00,,---,0.00,VWS V14.01,2013-01-04 08:59:00,
2013-01-04 01:04:00,28.2,19.0,32.23,SSW,200,0.0,0.0,68,0.00,,---,0.00,VWS V14.01,2013-01-04 09:04:00,
2013-01-04 01:09:00,28.2,19.0,32.23,SSW,198,0.0,0.0,68,0.00,,---,0.00,VWS V14.01,2013-01-04 09:09:00,
2013-01-04 01:14:00,28.2,19.7,32.23,SSW,193,0.0,0.0,70,0.00,,---,0.00,VWS V14.01,2013-01-04 09:14:00,
2013-01-04 01:19:00,28.4,19.5,32.23,SW,223,0.0,0.0,69,0.00,,---,0.00,VWS V14.01,2013-01-04 09:19:00,
2013-01-04 01:24:00,28.5,20.3,32.23,SW,218,0.0,0.0,71,0.00,,---,0.00,VWS V14.01,2013-01-04 09:24:00,
2013-01-04 01:29:00,28.7,20.2,32.23,SW,219,0.0,0.0,70,0.00,,---,0.00,VWS V14.01,2013-01-04 09:29:00,
2013-01-04 01:34:00,28.7,20.5,30.97,SSW,208,0.0,0.0,71,0.00,,---,0.00,VWS V14.01,2013-01-04 09:34:00,
2013-01-04 01:39:00,29.0,21.4,30.97,South,185,0.0,0.0,73,0.00,,---,0.00,VWS V14.01,2013-01-04 09:39:00,
2013-01-04 01:44:00,29.4,21.8,30.97,SSW,202,0.0,0.0,73,0.00,,---,0.00,VWS V14.01,2013-01-04 09:44:00,
2013-01-04 01:49:00,29.7,22.4,30.97,SSW,198,0.0,0.0,74,0.00,,---,0.00,VWS V14.01,2013-01-04 09:49:00,
2013-01-04 01:55:00,29.8,22.2,30.97,SW,221,0.0,0.0,73,0.00,,---,0.00,VWS V14.01,2013-01-04 09:55:00,
2013-01-04 02:00:00,29.7,21.8,30.97,SW,216,0.0,0.0,72,0.00,,---,0.00,VWS V14.01,2013-01-04 10:00:00,
2013-01-04 02:05:00,29.7,21.5,30.97,South,191,0.0,0.0,71,0.00,,---,0.00,VWS V14.01,2013-01-04 10:05:00,
2013-01-04 02:10:00,29.7,21.5,30.32,SW,225,0.0,0.0,71,0.00,,---,0.00,VWS V14.01,2013-01-04 10:10:00,
2013-01-04 02:15:00,29.5,20.9,30.32,SSW,211,0.0,0.0,70,0.00,,---,0.00,VWS V14.01,2013-01-04 10:15:00,
2013-01-04 02:20:00,29.4,21.2,30.32,SSW,212,0.0,0.0,71,0.00,,---,0.00,VWS V14.01,2013-01-04 10:20:00,
2013-01-04 02:25:00,29.3,21.1,30.32,SSW,212,0.0,0.0,71,0.00,,---,0.00,VWS V14.01,2013-01-04 10:25:00,
2013-01-04 02:30:00,29.1,20.9,30.32,South,189,0.0,0.0,71,0.00,,---,0.00,VWS V14.01,2013-01-04 10:30:00,
2013-01-04 02:36:00,29.1,20.9,30.32,SW,225,0.0,0.0,71,0.00,,---,0.00,VWS V14.01,2013-01-04 10:36:00,
2013-01-04 02:41:00,29.0,21.1,30.32,SW,227,0.0,0.0,72,0.00,,---,0.00,VWS V14.01,2013-01-04 10:41:00,
2013-01-04 02:46:00,28.8,20.9,30.32,SW,219,0.0,0.0,72,0.00,,---,0.00,VWS V14.01,2013-01-04 10:46:00,
2013-01-04 02:51:00,28.8,21.2,30.32,SSW,205,0.0,0.0,73,0.00,,---,0.00,VWS V14.01,2013-01-04 10:51:00,
2013-01-04 02:56:00,28.7,21.5,30.32,SSW,210,0.0,0.0,74,0.00,,---,0.00,VWS V14.01,2013-01-04 10:56:00,
2013-01-04 03:01:00,28.5,21.3,30.32,South,182,0.0,0.0,74,0.00,,---,0.00,VWS V14.01,2013-01-04 11:01:00,
2013-01-04 03:06:00,28.1,20.9,30.32,South,179,0.0,0.0,74,0.00,,---,0.00,VWS V14.01,2013-01-04 11:06:00,
2013-01-04 03:11:00,27.8,20.6,30.32,SSW,193,0.0,0.0,74,0.00,,---,0.00,VWS V14.01,2013-01-04 11:11:00,
2013-01-04 03:16:00,27.6,20.4,30.32,SSW,197,0.0,0.0,74,0.00,,---,0.00,VWS V14.01,2013-01-04 11:16:00,
2013-01-04 03:21:00,27.3,20.1,30.32,SW,216,0.0,0.0,74,0.00,,---,0.00,VWS V14.01,2013-01-04 11:21:00,
2013-01-04 03:27:00,27.2,20.3,30.32,SSW,194,0.0,0.0,75,0.00,,---,0.00,VWS V14.01,2013-01-04 11:27:00,
2013-01-04 03:32:00,27.0,20.1,32.47,SSW,196,0.0,0.0,75,0.00,,---,0.00,VWS V14.01,2013-01-04 11:32:00,
2013-01-04 03:37:00,26.9,19.7,32.47,South,190,0.0,0.0,74,0.00,,---,0.00,VWS V14.01,2013-01-04 11:37:00,
2013-01-04 03:42:00,26.7,19.5,32.47,SW,223,0.0,0.0,74,0.00,,---,0.00,VWS V14.01,2013-01-04 11:42:00,
2013-01-04 03:47:00,26.6,19.1,32.47,SSW,211,0.0,0.0,73,0.00,,---,0.00,VWS V14.01,2013-01-04 11:47:00,
2013-01-04 03:52:00,26.4,18.6,32.47,South,190,0.0,0.0,72,0.00,,---,0.00,VWS V14.01,2013-01-04 11:52:00,
2013-01-04 03:57:00,26.1,18.3,32.47,SSW,194,0.0,0.0,72,0.00,,---,0.00,VWS V14.01,2013-01-04 11:57:00,
2013-01-04 04:03:00,26.0,18.2,32.29,SSW,206,0.0,0.0,72,0.00,,---,0.00,VWS V14.01,2013-01-04 12:03:00,
2013-01-04 04:08:00,26.0,18.2,32.29,SSW,202,0.0,0.0,72,0.00,,---,0.00,VWS V14.01,2013-01-04 12:08:00,
2013-01-04 04:13:00,25.8,18.4,32.29,South,187,0.0,0.0,73,0.00,,---,0.00,VWS V14.01,2013-01-04 12:13:00,
2013-01-04 04:18:00,25.7,18.3,32.29,SSW,210,0.0,0.0,73,0.00,,---,0.00,VWS V14.01,2013-01-04 12:18:00,
2013-01-04 04:23:00,25.6,18.2,32.38,SSW,194,0.0,0.0,73,0.00,,---,0.00,VWS V14.01,2013-01-04 12:23:00,
2013-01-04 04:28:00,25.7,18.3,32.38,SSW,209,0.0,0.0,73,0.00,,---,0.00,VWS V14.01,2013-01-04 12:28:00,
2013-01-04 04:33:00,25.7,18.3,32.38,SSW,200,0.0,0.0,73,0.00,,---,0.00,VWS V14.01,2013-01-04 12:33:00,
2013-01-04 04:38:00,25.8,18.4,32.38,South,179,0.0,0.0,73,0.00,,---,0.00,VWS V14.01,2013-01-04 12:38:00,
2013-01-04 04:43:00,26.0,18.9,32.38,SSW,194,0.0,0.0,74,0.00,,---,0.00,VWS V14.01,2013-01-04 12:43:00,
2013-01-04 04:48:00,26.1,18.6,32.38,SSW,211,0.0,0.0,73,0.00,,---,0.00,VWS V14.01,2013-01-04 12:48:00,
2013-01-04 04:53:00,26.1,18.6,32.38,SSW,204,0.0,0.0,73,0.00,,---,0.00,VWS V14.01,2013-01-04 12:53:00,
2013-01-04 04:58:00,26.3,18.5,31.01,SSW,205,0.0,0.0,72,0.00,,---,0.00,VWS V14.01,2013-01-04 12:58:00,
2013-01-04 05:04:00,26.4,19.2,31.18,SW,218,0.0,0.0,74,0.00,,---,0.00,VWS V14.01,2013-01-04 13:04:00,
2013-01-04 05:09:00,26.6,19.4,31.35,SSW,198,0.0,0.0,74,0.00,,---,0.00,VWS V14.01,2013-01-04 13:09:00,
2013-01-04 05:14:00,26.7,19.5,31.35,SSW,192,0.0,0.0,74,0.00,,---,0.00,VWS V14.01,2013-01-04 13:14:00,
2013-01-04 05:19:00,26.9,19.4,31.27,South,186,0.0,0.0,73,0.00,,---,0.00,VWS V14.01,2013-01-04 13:19:00,
2013-01-04 05:24:00,26.7,19.2,31.27,SSW,204,0.0,0.0,73,0.00,,---,0.00,VWS V14.01,2013-01-04 13:24:00,
2013-01-04 05:29:00,26.7,19.2,31.10,SSW,212,0.0,0.0,73,0.00,,---,0.00,VWS V14.01,2013-01-04 13:29:00,
2013-01-04 05:34:00,26.6,19.1,31.10,SSW,200,0.0,0.0,73,0.00,,---,0.00,VWS V14.01,2013-01-04 13:34:00,
2013-01-04 05:39:00,26.4,18.9,31.10,SSW,200,0.0,0.0,73,0.00,,---,0.00,VWS V14.01,2013-01-04 13:39:00,
2013-01-04 05:44:00,26.3,18.8,31.00,SW,217,0.0,0.0,73,0.00,,---,0.00,VWS V14.01,2013-01-04 13:44:00,
2013-01-04 05:49:00,26.3,18.8,31.00,SSW,212,0.0,0.0,73,0.00,,---,0.00,VWS V14.01,2013-01-04 13:49:00,
2013-01-04 05:55:00,26.3,19.1,31.00,South,188,0.0,0.0,74,0.00,,---,0.00,VWS V14.01,2013-01-04 13:55:00,
2013-01-04 06:00:00,26.1,19.3,31.64,SW,218,0.0,0.0,75,0.00,,---,0.00,VWS V14.01,2013-01-04 14:00:00,
2013-01-04 06:05:00,26.0,19.2,31.64,South,183,0.0,0.0,75,0.00,,---,0.00,VWS V14.01,2013-01-04 14:05:00,
2013-01-04 06:10:00,25.7,18.9,31.00,SSW,201,0.0,0.0,75,0.00,,---,0.00,VWS V14.01,2013-01-04 14:10:00,
2013-01-04 06:15:00,25.7,19.5,31.00,SSW,207,0.0,0.0,77,0.00,,---,0.00,VWS V14.01,2013-01-04 14:15:00,
2013-01-04 06:20:00,25.7,19.5,31.00,South,180,0.0,0.0,77,0.00,,---,0.00,VWS V14.01,2013-01-04 14:20:00,
2013-01-04 06:25:00,26.0,19.8,31.00,SW,221,0.0,0.0,77,0.00,,---,0.00,VWS V14.01,2013-01-04 14:25:00,
2013-01-04 06:30:00,26.0,19.8,31.39,SW,214,0.0,0.0,77,0.00,,---,0.00,VWS V14.01,2013-01-04 14:30:00,
2013-01-04 06:35:00,26.0,19.8,31.39,SSW,198,0.0,0.0,77,0.00,,---,0.00,VWS V14.01,2013-01-04 14:35:00,
2013-01-04 06:40:00,26.1,19.9,31.00,SW,217,0.0,0.0,77,0.00,,---,0.00,VWS V14.01,2013-01-04 14:40:00,
2013-01-04 06:45:00,26.1,19.9,31.47,SSW,194,0.0,0.0,77,0.00,,---,0.00,VWS V14.01,2013-01-04 14:45:00,
2013-01-04 06:51:00,26.1,19.9,31.00,SW,220,0.0,0.0,77,0.00,,---,0.00,VWS V14.01,2013-01-04 14:51:00,
2013-01-04 06:56:00,26.1,20.2,31.00,SW,215,0.0,0.0,78,0.00,,---,0.00,VWS V14.01,2013-01-04 14:56:00,
2013-01-04 07:01:00,26.1,20.2,31.00,SSW,200,0.0,0.0,78,0.00,,---,0.00,VWS V14.01,2013-01-04 15:01:00,
2013-01-04 07:06:00,26.0,19.8,31.01,South,187,0.0,0.0,77,0.00,,---,0.00,VWS V14.01,2013-01-04 15:06:00,
2013-01-04 07:11:00,25.7,19.2,31.01,SSW,192,0.0,0.0,76,0.00,,---,0.00,VWS V14.01,2013-01-04 15:11:00,
2013-01-04 07:16:00,25.4,18.3,31.01,SSW,192,0.0,0.0,74,0.00,,---,0.00,VWS V14.01,2013-01-04 15:16:00,
2013-01-04 07:21:00,25.0,17.6,31.01,SSW,194,0.0,0.0,73,0.00,,---,0.00,VWS V14.01,2013-01-04 15:21:00,
2013-01-04 07:26:00,24.4,16.7,31.00,South,183,0.0,0.0,72,0.00,,---,0.00,VWS V14.01,2013-01-04 15:26:00,
2013-01-04 07:31:00,23.9,15.6,31.00,South,184,0.0,0.0,70,0.00,,---,0.00,VWS V14.01,2013-01-04 15:31:00,
2013-01-04 07:37:00,23.2,15.2,31.00,South,190,0.0,0.0,71,0.00,,---,0.00,VWS V14.01,2013-01-04 15:37:00,
2013-01-04 07:42:00,22.7,14.7,31.00,South,190,0.0,0.0,71,0.00,,---,0.00,VWS V14.01,2013-01-04 15:42:00,
2013-01-04 07:47:00,22.2,14.9,30.99,SSW,194,0.0,0.0,73,0.00,,---,0.00,VWS V14.01,2013-01-04 15:47:00,
2013-01-04 07:52:00,22.1,15.7,30.99,SSW,207,0.0,0.0,76,0.00,,---,0.00,VWS V14.01,2013-01-04 15:52:00,
2013-01-04 07:57:00,22.4,16.3,30.99,SW,229,0.0,0.0,77,0.00,,---,0.00,VWS V14.01,2013-01-04 15:57:00,
2013-01-04 08:02:00,22.9,16.8,31.00,SSW,195,0.0,0.0,77,0.00,,---,0.00,VWS V14.01,2013-01-04 16:02:00,
2013-01-04 08:07:00,23.2,16.8,31.00,SSW,198,0.0,0.0,76,0.00,,---,0.00,VWS V14.01,2013-01-04 16:07:00,
2013-01-04 08:12:00,23.2,16.8,31.00,SW,221,0.0,0.0,76,0.00,,---,0.00,VWS V14.01,2013-01-04 16:12:00,
2013-01-04 08:17:00,23.3,16.9,31.00,South,190,0.0,0.0,76,0.00,,---,0.00,VWS V14.01,2013-01-04 16:17:00,
2013-01-04 08:22:00,23.3,16.6,31.00,South,182,0.0,0.0,75,0.00,,---,0.00,VWS V14.01,2013-01-04 16:22:00,
2013-01-04 08:28:00,23.2,15.8,31.00,South,188,0.0,0.0,73,0.00,,---,0.00,VWS V14.01,2013-01-04 16:28:00,
2013-01-04 08:33:00,23.0,15.6,31.00,SSW,202,0.0,0.0,73,0.00,,---,0.00,VWS V14.01,2013-01-04 16:33:00,
2013-01-04 08:38:00,23.0,15.6,31.00,SSE,166,0.0,0.0,73,0.00,,---,0.00,VWS V14.01,2013-01-04 16:38:00,
2013-01-04 08:43:00,23.0,15.6,31.00,SSW,198,0.0,0.0,73,0.00,,---,0.00,VWS V14.01,2013-01-04 16:43:00,
2013-01-04 08:48:00,23.0,15.6,31.00,SSE,156,0.0,0.0,73,0.00,,---,0.00,VWS V14.01,2013-01-04 16:48:00,
2013-01-04 08:53:00,23.0,15.6,31.25,SSW,195,0.0,0.0,73,0.00,,---,0.00,VWS V14.01,2013-01-04 16:53:00,
2013-01-04 08:58:00,23.2,15.8,31.25,South,178,0.0,0.0,73,0.00,,---,0.00,VWS V14.01,2013-01-04 16:58:00,
2013-01-04 09:03:00,23.5,16.5,31.34,South,186,0.0,0.0,74,0.00,,---,0.00,VWS V14.01,2013-01-04 17:03:00,
2013-01-04 09:08:00,23.8,16.7,31.35,South,180,0.0,0.0,74,0.00,,---,0.00,VWS V14.01,2013-01-04 17:08:00,
2013-01-04 09:14:00,24.1,17.0,31.35,South,176,0.0,0.0,74,0.00,,---,0.00,VWS V14.01,2013-01-04 17:14:00,
2013-01-04 09:19:00,24.2,16.8,31.35,South,180,0.0,0.0,73,0.00,,---,0.00,VWS V14.01,2013-01-04 17:19:00,
2013-01-04 09:24:00,24.5,17.1,31.26,South,188,0.0,0.0,73,0.00,,---,0.00,VWS V14.01,2013-01-04 17:24:00,
2013-01-04 09:29:00,24.8,17.1,31.26,South,186,0.0,0.0,72,0.00,,---,0.00,VWS V14.01,2013-01-04 17:29:00,
2013-01-04 09:34:00,25.1,17.4,31.18,SSE,168,0.0,0.0,72,0.00,,---,0.00,VWS V14.01,2013-01-04 17:34:00,
2013-01-04 09:39:00,25.4,17.6,31.18,South,178,0.0,0.0,72,0.00,,---,0.00,VWS V14.01,2013-01-04 17:39:00,
2013-01-04 09:44:00,25.8,17.7,31.02,SSW,208,0.0,0.0,71,0.00,,---,0.00,VWS V14.01,2013-01-04 17:44:00,
2013-01-04 09:49:00,26.1,18.0,31.02,South,190,0.0,0.0,71,0.00,,---,0.00,VWS V14.01,2013-01-04 17:49:00,
2013-01-04 09:54:00,26.6,18.5,31.02,SSE,159,0.0,0.0,71,0.00,,---,0.00,VWS V14.01,2013-01-04 17:54:00,
2013-01-04 09:59:00,26.9,18.8,31.02,South,186,0.0,0.0,71,0.00,,---,0.00,VWS V14.01,2013-01-04 17:59:00,
2013-01-04 10:04:00,27.2,19.1,31.02,SSW,198,0.0,0.0,71,0.00,,---,0.00,VWS V14.01,2013-01-04 18:04:00,
2013-01-04 10:09:00,27.6,19.4,31.03,SSW,195,0.0,0.0,71,0.00,,---,0.00,VWS V14.01,2013-01-04 18:09:00,
2013-01-04 10:14:00,27.9,19.7,31.04,SSW,207,0.0,0.0,71,0.00,,---,0.00,VWS V14.01,2013-01-04 18:14:00,
2013-01-04 10:20:00,28.4,19.9,31.04,SSW,200,0.0,0.0,70,0.00,,---,0.00,VWS V14.01,2013-01-04 18:20:00,
2013-01-04 10:25:00,28.7,20.2,31.04,SSE,151,0.0,0.0,70,0.00,,---,0.00,VWS V14.01,2013-01-04 18:25:00,
2013-01-04 10:30:00,29.1,20.5,31.04,South,171,0.0,0.0,70,0.00,,---,0.00,VWS V14.01,2013-01-04 18:30:00,
2013-01-04 10:35:00,29.5,20.9,31.04,South,169,0.0,0.0,70,0.00,,---,0.00,VWS V14.01,2013-01-04 18:35:00,
2013-01-04 10:40:00,30.0,21.4,31.05,SSE,160,0.0,0.0,70,0.00,,---,0.00,VWS V14.01,2013-01-04 18:40:00,
2013-01-04 10:45:00,30.6,22.0,31.05,SSE,163,0.0,0.0,70,0.00,,---,0.00,VWS V14.01,2013-01-04 18:45:00,
2013-01-04 10:50:00,31.0,22.0,31.05,South,169,0.0,0.0,69,0.00,,---,0.00,VWS V14.01,2013-01-04 18:50:00,
2013-01-04 10:55:00,31.3,22.3,31.05,South,184,0.0,0.0,69,0.00,,---,0.00,VWS V14.01,2013-01-04 18:55:00,
2013-01-04 11:00:00,31.8,22.8,31.06,South,171,0.0,0.0,69,0.00,,---,0.00,VWS V14.01,2013-01-04 19:00:00,
2013-01-04 11:06:00,31.9,22.5,31.06,SSE,163,0.0,0.0,68,0.00,,---,0.00,VWS V14.01,2013-01-04 19:06:00,
2013-01-04 11:11:00,32.2,22.8,31.91,SW,216,0.0,0.0,68,0.00,,---,0.00,VWS V14.01,2013-01-04 19:11:00,
2013-01-04 11:16:00,32.5,23.1,31.91,South,186,0.0,0.0,68,0.00,,---,0.00,VWS V14.01,2013-01-04 19:16:00,
2013-01-04 11:21:00,32.8,23.1,31.91,SSE,161,0.0,0.0,67,0.00,,---,0.00,VWS V14.01,2013-01-04 19:21:00,
2013-01-04 11:26:00,33.1,23.4,31.45,South,171,0.0,0.0,67,0.00,,---,0.00,VWS V14.01,2013-01-04 19:26:00,
2013-01-04 11:31:00,33.4,23.3,31.45,SSE,154,0.0,0.0,66,0.00,,---,0.00,VWS V14.01,2013-01-04 19:31:00,
2013-01-04 11:36:00,33.7,23.9,31.84,South,176,0.0,0.0,67,0.00,,---,0.00,VWS V14.01,2013-01-04 19:36:00,
2013-01-04 11:41:00,34.1,24.0,31.84,SSE,150,0.0,0.0,66,0.00,,---,0.00,VWS V14.01,2013-01-04 19:41:00,
2013-01-04 11:46:00,34.3,24.1,31.84,South,171,0.0,0.0,66,0.00,,---,0.00,VWS V14.01,2013-01-04 19:46:00,
2013-01-04 11:51:00,34.6,24.1,31.84,SSW,198,0.0,0.0,65,0.00,,---,0.00,VWS V14.01,2013-01-04 19:51:00,
2013-01-04 11:56:00,34.9,24.3,31.08,SSE,157,0.0,0.0,65,0.00,,---,0.00,VWS V14.01,2013-01-04 19:56:00,
2013-01-04 12:02:00,35.3,24.7,31.08,SSW,203,0.0,0.0,65,0.00,,---,0.00,VWS V14.01,2013-01-04 20:02:00,
2013-01-04 12:07:00,35.8,25.2,31.08,SSW,209,0.0,0.0,65,0.00,,---,0.00,VWS V14.01,2013-01-04 20:07:00,
2013-01-04 12:12:00,35.9,24.9,31.08,SSE,157,0.0,0.0,64,0.00,,---,0.00,VWS V14.01,2013-01-04 20:12:00,
2013-01-04 12:17:00,36.0,25.0,31.08,SSW,192,0.0,0.0,64,0.00,,---,0.00,VWS V14.01,2013-01-04 20:17:00,
2013-01-04 12:22:00,35.9,24.9,31.08,SSW,211,0.0,0.0,64,0.00,,---,0.00,VWS V14.01,2013-01-04 20:22:00,
2013-01-04 12:27:00,36.0,25.0,31.08,SSW,196,0.0,0.0,64,0.00,,---,0.00,VWS V14.01,2013-01-04 20:27:00,
2013-01-04 12:32:00,36.0,25.0,31.08,SSW,202,0.0,0.0,64,0.00,,---,0.00,VWS V14.01,2013-01-04 20:32:00,
2013-01-04 12:37:00,36.3,25.3,31.08,SSE,165,0.0,0.0,64,0.00,,---,0.00,VWS V14.01,2013-01-04 20:37:00,
2013-01-04 12:43:00,36.6,25.2,31.08,SE,124,0.0,0.0,63,0.00,,---,0.00,VWS V14.01,2013-01-04 20:43:00,
2013-01-04 12:48:00,36.8,25.4,31.08,South,191,0.0,0.0,63,0.00,,---,0.00,VWS V14.01,2013-01-04 20:48:00,
2013-01-04 12:53:00,36.9,25.1,31.08,SSE,163,0.0,0.0,62,0.00,,---,0.00,VWS V14.01,2013-01-04 20:53:00,
2013-01-04 12:58:00,37.2,25.0,31.08,SSE,151,0.0,0.0,61,0.00,,---,0.00,VWS V14.01,2013-01-04 20:58:00,
2013-01-04 13:03:00,37.3,25.1,31.08,SSE,157,0.0,0.0,61,0.00,,---,0.00,VWS V14.01,2013-01-04 21:03:00,
2013-01-04 13:08:00,37.8,25.2,31.10,SSW,192,0.0,0.0,60,0.00,,---,0.00,VWS V14.01,2013-01-04 21:08:00,
2013-01-04 13:13:00,37.9,25.3,31.10,SSE,155,0.0,0.0,60,0.00,,---,0.00,VWS V14.01,2013-01-04 21:13:00,
2013-01-04 13:18:00,38.3,25.2,31.10,SSE,162,0.0,0.0,59,0.00,,---,0.00,VWS V14.01,2013-01-04 21:18:00,
2013-01-04 13:23:00,38.2,25.5,31.10,SSE,163,0.0,0.0,60,0.00,,---,0.00,VWS V14.01,2013-01-04 21:23:00,
2013-01-04 13:28:00,38.2,25.5,31.10,SSE,159,0.0,0.0,60,0.00,,---,0.00,VWS V14.01,2013-01-04 21:28:00,
2013-01-04 13:34:00,38.3,25.2,31.10,SSE,150,0.0,0.0,59,0.00,,---,0.00,VWS V14.01,2013-01-04 21:34:00,
2013-01-04 13:39:00,38.6,25.5,31.10,SSE,164,0.0,0.0,59,0.00,,---,0.00,VWS V14.01,2013-01-04 21:39:00,
2013-01-04 13:44:00,38.5,25.4,31.10,SSE,153,0.0,0.0,59,0.00,,---,0.00,VWS V14.01,2013-01-04 21:44:00,
2013-01-04 13:49:00,38.5,25.4,31.10,SE,138,0.0,0.0,59,0.00,,---,0.00,VWS V14.01,2013-01-04 21:49:00,
2013-01-04 13:54:00,36.6,21.5,31.09,NNE,26,0.0,0.0,54,0.00,,---,0.00,VWS V14.01,2013-01-04 21:54:00,
2013-01-04 13:59:00,35.2,21.5,31.08,NNE,26,0.0,0.0,57,0.00,,---,0.00,VWS V14.01,2013-01-04 21:59:00,
2013-01-04 14:04:00,35.0,21.3,31.07,NE,40,0.0,0.0,57,0.00,,---,0.00,VWS V14.01,2013-01-04 22:04:00,
2013-01-04 14:09:00,35.2,21.5,31.07,ENE,77,0.0,0.0,57,0.00,,---,0.00,VWS V14.01,2013-01-04 22:09:00,
2013-01-04 14:15:00,35.2,21.5,31.07,ENE,77,0.0,0.0,57,0.00,,---,0.00,VWS V14.01,2013-01-04 22:15:00,
2013-01-04 14:20:00,35.0,21.3,31.07,ENE,76,0.0,0.0,57,0.00,,---,0.00,VWS V14.01,2013-01-04 22:20:00,
2013-01-04 14:25:00,34.9,20.8,31.07,ENE,76,0.0,0.0,56,0.00,,---,0.00,VWS V14.01,2013-01-04 22:25:00,
2013-01-04 14:30:00,34.9,20.4,31.07,ENE,76,0.0,0.0,55,0.00,,---,0.00,VWS V14.01,2013-01-04 22:30:00,
2013-01-04 14:35:00,34.7,20.6,31.07,ENE,76,0.0,0.0,56,0.00,,---,0.00,VWS V14.01,2013-01-04 22:35:00,
2013-01-04 14:40:00,34.7,20.6,31.07,East,92,0.0,0.0,56,0.00,,---,0.00,VWS V14.01,2013-01-04 22:40:00,
2013-01-04 14:45:00,34.6,20.5,31.07,East,92,0.0,0.0,56,0.00,,---,0.00,VWS V14.01,2013-01-04 22:45:00,
2013-01-04 14:50:00,34.6,20.5,31.07,East,92,0.0,0.0,56,0.00,,---,0.00,VWS V14.01,2013-01-04 22:50:00,
2013-01-04 14:55:00,34.6,20.5,31.07,East,92,0.0,0.0,56,0.00,,---,0.00,VWS V14.01,2013-01-04 22:55:00,
2013-01-04 15:01:00,34.4,20.8,31.07,East,92,0.0,0.0,57,0.00,,---,0.00,VWS V14.01,2013-01-04 23:01:00,
2013-01-04 15:06:00,34.4,21.2,31.06,East,92,0.0,0.0,58,0.00,,---,0.00,VWS V14.01,2013-01-04 23:06:00,
2013-01-04 15:11:00,34.4,20.8,31.06,East,92,0.0,0.0,57,0.00,,---,0.00,VWS V14.01,2013-01-04 23:11:00,
2013-01-04 15:16:00,34.4,20.8,31.06,East,92,0.0,0.0,57,0.00,,---,0.00,VWS V14.01,2013-01-04 23:16:00,
2013-01-04 15:21:00,34.4,20.8,31.06,East,93,0.0,0.0,57,0.00,,---,0.00,VWS V14.01,2013-01-04 23:21:00,
2013-01-04 15:26:00,34.4,21.2,31.06,East,97,0.0,0.0,58,0.00,,---,0.00,VWS V14.01,2013-01-04 23:26:00,
2013-01-04 15:32:00,34.4,21.2,31.06,East,97,0.0,0.0,58,0.00,,---,0.00,VWS V14.01,2013-01-04 23:32:00,
2013-01-04 15:37:00,34.4,21.2,31.06,ESE,106,0.0,0.0,58,0.00,,---,0.00,VWS V14.01,2013-01-04 23:37:00,
2013-01-04 15:42:00,34.4,21.2,31.06,SE,126,0.0,0.0,58,0.00,,---,0.00,VWS V14.01,2013-01-04 23:42:00,
2013-01-04 15:47:00,34.4,21.6,31.06,SE,139,0.0,0.0,59,0.00,,---,0.00,VWS V14.01,2013-01-04 23:47:00,
2013-01-04 15:52:00,34.3,21.5,31.06,SE,136,0.0,0.0,59,0.00,,---,0.00,VWS V14.01,2013-01-04 23:52:00,
2013-01-04 15:57:00,34.3,21.5,31.06,ESE,123,0.0,0.0,59,0.00,,---,0.00,VWS V14.01,2013-01-04 23:57:00,
2013-01-04 16:02:00,34.1,20.9,31.06,ESE,113,0.0,0.0,58,0.00,,---,0.00,VWS V14.01,2013-01-05 00:02:00,
2013-01-04 16:07:00,34.0,20.8,31.06,ESE,114,0.0,0.0,58,0.00,,---,0.00,VWS V14.01,2013-01-05 00:07:00,
2013-01-04 16:12:00,33.7,20.5,31.06,SE,124,0.0,0.0,58,0.00,,---,0.00,VWS V14.01,2013-01-05 00:12:00,
2013-01-04 16:18:00,33.5,20.3,31.06,ESE,107,0.0,0.0,58,0.00,,---,0.00,VWS V14.01,2013-01-05 00:18:00,
2013-01-04 16:23:00,33.2,20.0,31.05,ESE,105,0.0,0.0,58,0.00,,---,0.00,VWS V14.01,2013-01-05 00:23:00,
2013-01-04 16:28:00,32.9,20.2,31.05,ESE,120,0.0,0.0,59,0.00,,---,0.00,VWS V14.01,2013-01-05 00:28:00,
2013-01-04 16:33:00,32.8,20.1,31.05,ESE,116,0.0,0.0,59,0.00,,---,0.00,VWS V14.01,2013-01-05 00:33:00,
2013-01-04 16:38:00,32.7,20.0,31.05,ESE,115,0.0,0.0,59,0.00,,---,0.00,VWS V14.01,2013-01-05 00:38:00,
2013-01-04 16:43:00,32.5,19.8,31.05,ESE,111,0.0,0.0,59,0.00,,---,0.00,VWS V14.01,2013-01-05 00:43:00,
2013-01-04 16:48:00,32.4,19.7,31.05,ESE,121,0.0,0.0,59,0.00,,---,0.00,VWS V14.01,2013-01-05 00:48:00,
2013-01-04 16:53:00,32.4,20.1,31.05,SE,125,0.0,0.0,60,0.00,,---,0.00,VWS V14.01,2013-01-05 00:53:00,
2013-01-04 16:58:00,32.2,19.9,31.05,ESE,118,0.0,0.0,60,0.00,,---,0.00,VWS V14.01,2013-01-05 00:58:00,
2013-01-04 17:03:00,32.1,19.8,31.05,SE,129,0.0,0.0,60,0.00,,---,0.00,VWS V14.01,2013-01-05 01:03:00,
2013-01-04 17:08:00,31.9,20.0,31.05,ESE,121,0.0,0.0,61,0.00,,---,0.00,VWS V14.01,2013-01-05 01:08:00,
2013-01-04 17:14:00,31.8,19.5,31.05,ESE,120,0.0,0.0,60,0.00,,---,0.00,VWS V14.01,2013-01-05 01:14:00,
2013-01-04 17:19:00,31.8,19.9,31.43,ESE,122,0.0,0.0,61,0.00,,---,0.00,VWS V14.01,2013-01-05 01:19:00,
2013-01-04 17:24:00,31.5,19.6,31.05,SE,126,0.0,0.0,61,0.00,,---,0.00,VWS V14.01,2013-01-05 01:24:00,
2013-01-04 17:29:00,31.3,19.4,31.05,SE,126,0.0,0.0,61,0.00,,---,0.00,VWS V14.01,2013-01-05 01:29:00,
2013-01-04 17:34:00,31.2,19.3,31.42,SE,144,0.0,0.0,61,0.00,,---,0.00,VWS V14.01,2013-01-05 01:34:00,
2013-01-04 17:39:00,31.0,19.5,31.42,SE,144,0.0,0.0,62,0.00,,---,0.00,VWS V14.01,2013-01-05 01:39:00,
2013-01-04 17:44:00,30.9,19.4,31.03,SE,131,0.0,0.0,62,0.00,,---,0.00,VWS V14.01,2013-01-05 01:44:00,
2013-01-04 17:49:00,30.7,19.6,31.03,SE,143,0.0,0.0,63,0.00,,---,0.00,VWS V14.01,2013-01-05 01:49:00,
2013-01-04 17:54:00,30.7,19.2,31.03,SE,134,0.0,0.0,62,0.00,,---,0.00,VWS V14.01,2013-01-05 01:54:00,
2013-01-04 17:59:00,30.6,19.1,31.03,SSE,155,0.0,0.0,62,0.00,,---,0.00,VWS V14.01,2013-01-05 01:59:00,
2013-01-04 18:04:00,30.3,18.9,31.03,SE,128,0.0,0.0,62,0.00,,---,0.00,VWS V14.01,2013-01-05 02:04:00,
2013-01-04 18:10:00,30.1,18.7,31.03,SE,142,0.0,0.0,62,0.00,,---,0.00,VWS V14.01,2013-01-05 02:10:00,
2013-01-04 18:15:00,30.0,19.0,31.03,SE,144,0.0,0.0,63,0.00,,---,0.00,VWS V14.01,2013-01-05 02:15:00,
2013-01-04 18:20:00,29.8,18.8,31.03,SSE,156,0.0,0.0,63,0.00,,---,0.00,VWS V14.01,2013-01-05 02:20:00,
2013-01-04 18:25:00,29.7,19.0,31.03,SSE,158,0.0,0.0,64,0.00,,---,0.00,VWS V14.01,2013-01-05 02:25:00,
2013-01-04 18:30:00,29.5,19.2,31.03,SSE,161,0.0,0.0,65,0.00,,---,0.00,VWS V14.01,2013-01-05 02:30:00,
2013-01-04 18:35:00,29.4,19.1,31.02,SSE,163,0.0,0.0,65,0.00,,---,0.00,VWS V14.01,2013-01-05 02:35:00,
2013-01-04 18:40:00,29.3,19.0,31.02,SSE,163,0.0,0.0,65,0.00,,---,0.00,VWS V14.01,2013-01-05 02:40:00,
2013-01-04 18:45:00,29.1,19.2,31.02,SSE,163,0.0,0.0,66,0.00,,---,0.00,VWS V14.01,2013-01-05 02:45:00,
2013-01-04 18:50:00,29.1,19.5,31.02,SSE,163,0.0,0.0,67,0.00,,---,0.00,VWS V14.01,2013-01-05 02:50:00,
2013-01-04 18:55:00,29.1,19.5,31.02,SSE,163,0.0,0.0,67,0.00,,---,0.00,VWS V14.01,2013-01-05 02:55:00,
2013-01-04 19:00:00,29.0,19.4,31.02,SSW,200,0.0,0.0,67,0.00,,---,0.00,VWS V14.01,2013-01-05 03:00:00,
2013-01-04 19:05:00,29.0,19.8,31.01,SW,219,0.0,0.0,68,0.00,,---,0.00,VWS V14.01,2013-01-05 03:05:00,
2013-01-04 19:11:00,29.1,19.9,31.01,SW,220,0.0,0.0,68,0.00,,---,0.00,VWS V14.01,2013-01-05 03:11:00,
2013-01-04 19:16:00,29.3,20.1,31.78,SW,220,0.0,0.0,68,0.00,,---,0.00,VWS V14.01,2013-01-05 03:16:00,
2013-01-04 19:21:00,29.4,20.5,32.17,SSW,212,0.0,0.0,69,0.00,,---,0.00,VWS V14.01,2013-01-05 03:21:00,
2013-01-04 19:26:00,29.5,20.6,32.17,South,185,0.0,0.0,69,0.00,,---,0.00,VWS V14.01,2013-01-05 03:26:00,
2013-01-04 19:31:00,29.7,20.8,31.78,South,185,0.0,0.0,69,0.00,,---,0.00,VWS V14.01,2013-01-05 03:31:00,
2013-01-04 19:36:00,29.7,20.1,32.17,South,185,0.0,0.0,67,0.00,,---,0.00,VWS V14.01,2013-01-05 03:36:00,
2013-01-04 19:41:00,29.7,19.8,32.17,SW,223,0.0,0.0,66,0.00,,---,0.00,VWS V14.01,2013-01-05 03:41:00,
2013-01-04 19:46:00,29.7,19.8,32.17,SSW,203,0.0,0.0,66,0.00,,---,0.00,VWS V14.01,2013-01-05 03:46:00,
2013-01-04 19:51:00,29.5,20.6,32.17,SSW,202,0.0,0.0,69,0.00,,---,0.00,VWS V14.01,2013-01-05 03:51:00,
2013-01-04 19:56:00,29.5,20.9,32.17,South,191,0.0,0.0,70,0.00,,---,0.00,VWS V14.01,2013-01-05 03:56:00,
2013-01-04 20:01:00,29.7,21.5,32.17,SSW,198,0.0,0.0,71,0.00,,---,0.00,VWS V14.01,2013-01-05 04:01:00,
2013-01-04 20:07:00,29.7,21.5,32.17,South,184,0.0,0.0,71,0.00,,---,0.00,VWS V14.01,2013-01-05 04:07:00,
2013-01-04 20:12:00,29.7,21.5,32.17,SSW,196,0.0,0.0,71,0.00,,---,0.00,VWS V14.01,2013-01-05 04:12:00,
2013-01-04 20:17:00,29.7,21.1,32.17,South,182,0.0,0.0,70,0.00,,---,0.00,VWS V14.01,2013-01-05 04:17:00,
2013-01-04 20:22:00,29.5,20.9,32.18,South,186,0.0,0.0,70,0.00,,---,0.00,VWS V14.01,2013-01-05 04:22:00,
2013-01-04 20:27:00,29.4,20.8,32.18,South,178,0.0,0.0,70,0.00,,---,0.00,VWS V14.01,2013-01-05 04:27:00,
2013-01-04 20:32:00,29.3,20.4,32.18,South,181,0.0,0.0,69,0.00,,---,0.00,VWS V14.01,2013-01-05 04:32:00,
2013-01-04 20:37:00,29.1,19.9,32.18,South,177,0.0,0.0,68,0.00,,---,0.00,VWS V14.01,2013-01-05 04:37:00,
2013-01-04 20:42:00,28.8,19.6,32.18,South,180,0.0,0.0,68,0.00,,---,0.00,VWS V14.01,2013-01-05 04:42:00,
2013-01-04 20:47:00,28.7,19.8,32.18,SSE,167,0.0,0.0,69,0.00,,---,0.00,VWS V14.01,2013-01-05 04:47:00,
2013-01-04 20:52:00,28.4,19.5,32.18,South,171,0.0,0.0,69,0.00,,---,0.00,VWS V14.01,2013-01-05 04:52:00,
2013-01-04 20:57:00,28.2,19.4,32.18,SSE,163,0.0,0.0,69,0.00,,---,0.00,VWS V14.01,2013-01-05 04:57:00,
2013-01-04 21:00:00,28.2,19.4,32.18,South,175,0.0,0.0,69,0.00,,---,0.00,VWS V14.01,2013-01-05 05:00:00,
2013-01-04 21:01:00,28.1,19.3,32.18,SSW,193,0.0,0.0,69,0.00,,---,0.00,VWS V14.01,2013-01-05 05:01:00,
2013-01-04 21:02:00,28.1,19.3,32.18,SSW,207,0.0,0.0,69,0.00,,---,0.00,VWS V14.01,2013-01-05 05:02:00,
2013-01-04 21:07:00,27.9,19.1,32.18,South,180,0.0,0.0,69,0.00,,---,0.00,VWS V14.01,2013-01-05 05:07:00,
2013-01-04 21:12:00,27.8,19.0,32.18,SSW,205,0.0,0.0,69,0.00,,---,0.00,VWS V14.01,2013-01-05 05:12:00,
2013-01-04 21:17:00,27.6,19.1,32.18,South,190,0.0,0.0,70,0.00,,---,0.00,VWS V14.01,2013-01-05 05:17:00,
2013-01-04 21:22:00,27.5,19.4,32.18,SSW,211,0.0,0.0,71,0.00,,---,0.00,VWS V14.01,2013-01-05 05:22:00,
2013-01-04 21:27:00,27.3,19.1,32.18,SW,220,0.0,0.0,71,0.00,,---,0.00,VWS V14.01,2013-01-05 05:27:00,
2013-01-04 21:32:00,27.3,19.1,32.18,SSW,209,0.0,0.0,71,0.00,,---,0.00,VWS V14.01,2013-01-05 05:32:00,
2013-01-04 21:37:00,27.3,19.5,32.18,SW,224,0.0,0.0,72,0.00,,---,0.00,VWS V14.01,2013-01-05 05:37:00,
2013-01-04 21:42:00,27.3,19.8,32.18,SW,216,0.0,0.0,73,0.00,,---,0.00,VWS V14.01,2013-01-05 05:42:00,
2013-01-04 21:47:00,27.3,19.8,32.18,SSW,207,0.0,0.0,73,0.00,,---,0.00,VWS V14.01,2013-01-05 05:47:00,
2013-01-04 21:52:00,27.2,19.7,32.18,SSW,207,0.0,0.0,73,0.00,,---,0.00,VWS V14.01,2013-01-05 05:52:00,
2013-01-04 21:58:00,27.2,19.7,32.18,SW,219,0.0,0.0,73,0.00,,---,0.00,VWS V14.01,2013-01-05 05:58:00,
2013-01-04 22:03:00,27.2,19.4,31.41,SW,224,0.0,0.0,72,0.00,,---,0.00,VWS V14.01,2013-01-05 06:03:00,
2013-01-04 22:08:00,27.2,19.4,31.43,SW,222,0.0,0.0,72,0.00,,---,0.00,VWS V14.01,2013-01-05 06:08:00,
2013-01-04 22:13:00,27.2,19.1,31.05,SW,225,0.0,0.0,71,0.00,,---,0.00,VWS V14.01,2013-01-05 06:13:00,
2013-01-04 22:18:00,27.0,18.9,31.81,SSW,210,0.0,0.0,71,0.00,,---,0.00,VWS V14.01,2013-01-05 06:18:00,
2013-01-04 22:23:00,27.0,18.9,31.05,SSW,202,0.0,0.0,71,0.00,,---,0.00,VWS V14.01,2013-01-05 06:23:00,
2013-01-04 22:28:00,27.0,18.5,31.05,SSW,203,0.0,0.0,70,0.00,,---,0.00,VWS V14.01,2013-01-05 06:28:00,
2013-01-04 22:33:00,27.0,18.5,31.05,South,188,0.0,0.0,70,0.00,,---,0.00,VWS V14.01,2013-01-05 06:33:00,
2013-01-04 22:38:00,26.9,18.4,31.05,South,180,0.0,0.0,70,0.00,,---,0.00,VWS V14.01,2013-01-05 06:38:00,
2013-01-04 22:43:00,26.9,18.4,31.05,SSE,166,0.0,0.0,70,0.00,,---,0.00,VWS V14.01,2013-01-05 06:43:00,
2013-01-04 22:48:00,26.7,18.2,31.05,South,179,0.0,0.0,70,0.00,,---,0.00,VWS V14.01,2013-01-05 06:48:00,
2013-01-04 22:53:00,26.6,17.8,31.05,SSE,158,0.0,0.0,69,0.00,,---,0.00,VWS V14.01,2013-01-05 06:53:00,
2013-01-04 22:59:00,26.6,17.8,31.05,SSE,156,0.0,0.0,69,0.00,,---,0.00,VWS V14.01,2013-01-05 06:59:00,
2013-01-04 23:04:00,26.4,17.6,31.05,SSE,159,0.0,0.0,69,0.00,,---,0.00,VWS V14.01,2013-01-05 07:04:00,
2013-01-04 23:09:00,26.3,17.5,31.07,South,184,0.0,0.0,69,0.00,,---,0.00,VWS V14.01,2013-01-05 07:09:00,
2013-01-04 23:14:00,26.1,17.3,31.07,South,170,0.0,0.0,69,0.00,,---,0.00,VWS V14.01,2013-01-05 07:14:00,
2013-01-04 23:19:00,26.0,17.6,31.07,South,177,0.0,0.0,70,0.00,,---,0.00,VWS V14.01,2013-01-05 07:19:00,
2013-01-04 23:24:00,25.8,17.4,31.07,South,177,0.0,0.0,70,0.00,,---,0.00,VWS V14.01,2013-01-05 07:24:00,
2013-01-04 23:29:00,25.7,17.6,31.07,South,177,0.0,0.0,71,0.00,,---,0.00,VWS V14.01,2013-01-05 07:29:00,
2013-01-04 23:34:00,25.6,17.5,31.07,South,180,0.0,0.0,71,0.00,,---,0.00,VWS V14.01,2013-01-05 07:34:00,
2013-01-04 23:39:00,25.4,17.3,31.07,South,179,0.0,0.0,71,0.00,,---,0.00,VWS V14.01,2013-01-05 07:39:00,
2013-01-04 23:44:00,25.4,17.3,31.06,South,181,0.0,0.0,71,0.00,,---,0.00,VWS V14.01,2013-01-05 07:44:00,
2013-01-04 23:49:00,25.3,17.2,31.06,South,181,0.0,0.0,71,0.00,,---,0.00,VWS V14.01,2013-01-05 07:49:00,
2013-01-04 23:54:00,25.1,17.0,31.06,South,181,0.0,0.0,71,0.00,,---,0.00,VWS V14.01,2013-01-05 07:54:00,
2013-01-04 23:59:00,25.1,17.0,31.06,South,181,0.0,0.0,71,0.00,,---,0.00,VWS V14.01,2013-01-05 07:59:00,